DW6059 Weather Reports


time (UTC)temp
C
wind
direction
speed
KPH
gust
KPH
rain 1hr
cm
rain 24hr
cm
rain mn
cm
humidity
%
barometer
mb
20260507224559 11 184 0.0 1.6 0.03 2.01 1.98 91 1008.9
20260507223053 11 253 0.0 1.6 0.00 1.98 1.96 91 1009.0
20260507221551 11 225 0.0 1.6 0.00 1.98 1.96 91 1009.0
20260507220050 11 153 0.0 4.8 0.03 1.98 1.96 91 1009.1
20260507214553 11 85 0.0 1.6 0.08 1.98 1.96 91 1009.4
20260507213051 11 42 0.0 3.2 0.10 1.98 1.96 91 1009.4
20260507211549 11 159 0.0 0.0 0.15 1.98 1.96 91 1009.5
20260507210051 11 115 0.0 4.8 0.13 1.96 1.93 90 1009.5
20260507204553 11 130 0.0 1.6 0.08 1.91 1.88 90 1009.2
20260507203049 11 184 0.0 0.0 0.00 0.00 1.85 90 1009.0
20260507201553 11 174 0.0 1.6 0.00 1.83 1.80 89 1009.0
20260507200045 11 65 0.0 3.2 0.00 1.83 1.80 87 1009.0
20260507194545 12 217 0.0 6.4 0.00 1.83 1.80 86 1008.7
20260507193050 12 19 0.0 4.8 0.00 1.83 1.80 87 1008.8
20260507191551 12 221 0.0 6.4 0.00 1.83 1.80 86 1008.9
20260507190046 12 356 0.0 4.8 0.00 1.83 1.80 87 1008.6
20260507184544 11 297 0.0 4.8 0.00 1.85 1.80 88 1008.8
20260507183043 11 93 1.6 3.2 0.03 1.85 1.80 88 1009.1
20260507181538 11 354 0.0 3.2 0.05 1.85 1.80 88 1009.7
20260507180038 11 147 1.6 8.0 0.08 1.85 1.80 89 1008.8
20260507174542 12 92 1.6 8.0 0.13 1.85 1.80 90 1008.9
20260507173036 12 21 1.6 4.8 0.15 1.83 1.78 90 1008.9
20260507171536 12 28 0.0 4.8 0.18 1.80 1.75 91 1008.4
20260507170041 12 6 0.0 4.8 0.23 1.78 1.73 91 1008.5
20260507164533 12 32 0.0 4.8 0.23 1.73 1.68 90 1009.4
20260507163030 12 58 0.0 9.7 0.25 1.68 1.63 90 1009.6
20260507161528 12 22 0.0 4.8 0.28 1.63 1.57 91 1009.8
20260507160026 12 350 0.0 3.2 0.25 1.55 1.50 91 1009.4
20260507154525 13 356 0.0 4.8 0.28 1.50 1.42 91 1009.3
20260507153024 13 23 0.0 1.6 0.28 1.42 1.37 91 1008.9
20260507151522 13 350 0.0 4.8 0.28 1.35 1.30 91 1009.3
20260507150024 13 27 0.0 3.2 0.28 1.27 1.22 91 1009.3
20260507144518 13 8 1.6 4.8 0.30 1.22 1.17 91 1009.2
20260507143019 13 262 0.0 3.2 0.30 1.14 1.09 91 1009.2
20260507141513 14 38 0.0 3.2 0.25 1.07 1.02 91 1009.4
20260507140012 15 155 0.0 4.8 0.18 0.99 0.94 90 1009.4
20260507134508 16 35 0.0 11.3 0.08 0.89 0.84 89 1008.5
20260507133005 18 267 0.0 1.6 0.00 0.81 0.76 92 1008.1
20260507131509 18 267 0.0 0.0 0.00 0.81 0.76 92 1008.0
20260507130002 18 267 0.0 0.0 0.00 0.81 0.76 92 1008.4
20260507124504 18 267 0.0 0.0 0.03 0.81 0.76 92 1008.5
20260507123002 18 267 0.0 0.0 0.03 0.81 0.76 92 1008.9
20260507121608 18 267 0.0 0.0 0.03 0.81 0.76 92 1008.5
20260507114614 18 267 0.0 0.0 0.08 0.79 0.71 92 1008.9
20260507113101 17 267 0.0 0.0 0.15 0.79 0.71 92 1008.9
20260507111606 17 267 0.0 0.0 0.20 0.79 0.71 92 1008.9
20260507110109 17 268 0.0 0.0 0.23 0.79 0.71 92 1008.7
20260507104555 17 267 0.0 1.6 0.15 0.71 0.66 91 1008.7
20260507103055 18 236 0.0 1.6 0.13 0.64 0.58 91 1008.6
20260507101603 18 283 0.0 1.6 0.13 0.58 0.53 91 1008.5
20260507100053 18 290 0.0 1.6 0.15 0.56 0.51 91 1008.4
20260507094554 18 290 0.0 1.6 0.20 0.56 0.51 91 1008.4
20260507093056 18 144 0.0 3.2 0.15 0.51 0.46 91 1008.6
20260507091552 18 329 0.0 1.6 0.13 0.46 0.41 91 1008.5
20260507090055 18 257 0.0 1.6 0.10 0.41 0.36 91 1008.5
20260507084551 18 138 0.0 0.0 0.05 0.36 0.30 91 1008.4
20260507083048 18 138 0.0 0.0 0.05 0.36 0.30 91 1008.5
20260507081549 18 138 0.0 1.6 0.05 0.33 0.28 91 1008.6
20260507080049 18 161 0.0 1.6 0.13 0.30 0.25 90 1008.6
20260507074557 18 311 0.0 3.2 0.13 0.30 0.25 90 1008.9
20260507073041 18 43 0.0 4.8 0.13 0.30 0.25 89 1009.2
20260507071539 18 165 1.6 8.0 0.10 0.28 0.23 89 1009.5
20260507070039 18 160 0.0 3.2 0.00 0.18 0.13 89 1009.6
20260507064538 18 224 0.0 3.2 0.00 0.18 0.13 89 1009.6
20260507063038 18 281 0.0 3.2 0.00 0.18 0.13 89 1009.7
20260507061537 18 309 0.0 3.2 0.00 0.18 0.13 89 1009.7
20260507060036 18 151 0.0 3.2 0.05 0.18 0.13 88 1009.2
20260507054542 18 290 1.6 6.4 0.05 0.18 0.13 88 1009.2
20260507053036 18 132 1.6 6.4 0.10 0.18 0.13 89 1009.4
20260507051534 18 197 0.0 4.8 0.13 0.18 0.13 89 1009.6
20260507050032 18 139 0.0 6.4 0.08 0.13 0.08 90 1010.2
20260507044533 18 200 0.0 0.0 0.08 0.13 0.08 90 1010.9
20260507043032 18 200 0.0 0.0 0.05 0.08 0.03 89 1010.8
20260507041525 18 200 0.0 0.0 0.03 0.05 0.00 88 1010.3
20260507040023 18 279 0.0 1.6 0.03 0.05 0.00 88 1010.4
20260507034522 18 104 0.0 1.6 0.03 0.05 0.05 88 1010.1
20260507033023 18 104 0.0 0.0 0.00 0.03 0.03 87 1010.3
20260507031520 19 104 0.0 0.0 0.00 0.03 0.03 86 1010.1
20260507030019 19 104 0.0 1.6 0.00 0.03 0.03 84 1009.9
20260507024523 20 104 0.0 1.6 0.00 0.03 0.03 83 1010.1
20260507023018 20 104 0.0 1.6 0.00 0.03 0.03 84 1009.0
20260507021521 19 138 0.0 0.0 0.00 0.03 0.03 84 1009.8
20260507020020 19 138 0.0 0.0 0.00 0.03 0.03 84 1010.4
20260507014523 20 138 0.0 0.0 0.00 0.03 0.03 83 1010.4
20260507013015 20 138 0.0 1.6 0.00 0.03 0.03 83 1010.1
20260507011515 20 138 0.0 0.0 0.00 0.03 0.03 82 1009.9
20260507010015 20 138 0.0 0.0 0.00 0.03 0.03 83 1009.9
20260507004517 20 138 0.0 3.2 0.00 0.03 0.03 82 1009.7
20260507003013 20 136 0.0 1.6 0.00 0.03 0.03 83 1009.7
20260507001519 20 136 0.0 0.0 0.00 0.03 0.03 82 1009.9
20260507000012 21 136 0.0 0.0 0.00 0.03 0.03 80 1010.1
20260506234514 21 136 0.0 1.6 0.00 0.03 0.03 79 1010.1
20260506233011 22 209 0.0 1.6 0.00 0.03 0.03 77 1009.9
20260506231510 22 159 0.0 3.2 0.00 0.03 0.03 76 1009.5
20260506230009 22 110 0.0 8.0 0.00 0.03 0.03 74 1009.4